DWS9845 Weather Reports


time (UTC)temp
C
wind
direction
speed
KPH
gust
KPH
rain 1hr
cm
rain 24hr
cm
rain mn
cm
humidity
%
barometer
mb
20260502163208 21 26 3.2 9.7 0.00 4.11 0.00 67 1018.7
20260502162702 21 71 3.2 9.7 0.00 4.60 0.00 68 1018.7
20260502162156 21 53 3.2 11.3 0.00 4.70 0.00 68 1018.6
20260502161926 21 28 3.2 9.7 0.00 4.70 0.00 69 1018.8
20260502161156 21 343 3.2 9.7 0.00 4.70 0.00 70 1018.7
20260502160654 21 94 3.2 9.7 0.00 4.70 0.00 70 1018.7
20260502160152 21 30 3.2 9.7 0.00 4.70 0.00 72 1018.7
20260502152148 19 51 3.2 14.5 0.00 4.70 0.00 76 1018.6
20260502151648 19 95 3.2 14.5 0.00 4.70 0.00 77 1018.7
20260502151146 18 53 3.2 9.7 0.00 4.70 0.00 77 1018.7
20260502150646 18 355 3.2 9.7 0.00 4.70 0.00 78 1018.7
20260502150144 18 62 1.6 9.7 0.00 4.70 0.00 79 1018.7
20260502130452 13 36 1.6 6.4 0.00 4.80 0.00 91 1017.4
20260502123419 13 38 0.0 4.8 0.00 4.80 0.00 91 1016.9
20260502122918 12 36 1.6 3.2 0.00 4.80 0.00 91 1016.8
20260502122416 12 36 1.6 4.8 0.00 4.80 0.00 91 1016.6
20260502121910 12 18 1.6 6.4 0.00 4.80 0.00 91 1016.6
20260502121617 12 42 1.6 6.4 0.00 4.83 0.00 92 1016.6
20260502120847 12 13 0.0 3.2 0.00 4.83 0.00 92 1016.5
20260502120347 12 13 0.0 6.4 0.00 4.83 0.00 91 1016.5
20260502115846 12 13 1.6 6.4 0.00 4.83 0.00 92 1016.4
20260502115556 12 48 1.6 3.2 0.00 4.85 0.00 92 1016.4
20260502114812 12 48 1.6 4.8 0.00 4.88 0.00 92 1016.3
20260502114534 12 49 1.6 4.8 0.00 4.88 0.00 92 1016.3
20260502113802 12 51 1.6 4.8 0.00 4.88 0.00 91 1016.2
20260502113516 12 51 1.6 3.2 0.00 4.88 0.00 91 1016.1
20260502112754 12 51 1.6 3.2 0.00 4.88 0.00 91 1015.9
20260502112254 12 51 0.0 3.2 0.00 4.88 0.00 91 1015.8
20260502112012 12 51 0.0 3.2 0.00 4.88 0.00 91 1015.9
20260502111249 12 51 0.0 3.2 0.00 4.88 0.00 91 1015.9
20260502110727 12 51 0.0 3.2 0.00 4.88 0.00 91 1016.0
20260502110224 12 51 0.0 3.2 0.00 4.88 0.00 91 1016.0
20260502105716 12 51 0.0 3.2 0.00 4.88 0.00 91 1015.9
20260502105214 12 51 0.0 3.2 0.00 4.88 0.00 91 1015.9
20260502104712 12 51 0.0 3.2 0.00 4.88 0.00 91 1015.8
20260502104156 12 51 0.0 3.2 0.00 4.88 0.00 91 1015.8
20260502103654 12 51 0.0 1.6 0.00 4.88 0.00 91 1015.7
20260502103154 12 51 0.0 1.6 0.00 4.88 0.00 91 1015.4
20260502102638 12 51 0.0 1.6 0.00 4.88 0.00 91 1015.4
20260502102132 12 51 0.0 1.6 0.00 4.88 0.00 91 1015.2
20260502101626 12 51 0.0 1.6 0.00 4.88 0.00 91 1015.2
20260502101122 12 51 0.0 0.0 0.00 4.88 0.00 91 1015.1
20260502100603 12 51 0.0 1.6 0.00 4.88 0.00 91 1015.0
20260502091454 13 51 0.0 3.2 0.00 4.88 0.00 91 1014.3
20260502090938 13 51 0.0 4.8 0.00 4.88 0.00 91 1014.2
20260502090438 13 51 0.0 4.8 0.00 4.88 0.00 91 1014.1
20260502090201 13 51 0.0 4.8 0.00 4.88 0.00 91 1014.1
20260502071230 13 66 1.6 11.3 0.00 4.88 0.00 92 1014.2
20260502070715 13 67 3.2 11.3 0.00 4.88 0.00 92 1014.1
20260502070208 13 323 3.2 8.0 0.00 4.88 0.00 93 1014.1
20260502065702 14 21 1.6 6.4 0.00 4.88 0.00 93 1014.1
20260502065155 14 355 1.6 4.8 0.00 4.88 0.00 93 1014.0
20260502064910 14 355 1.6 9.7 0.00 4.88 0.00 93 1013.9
20260502064150 14 355 1.6 9.7 0.00 4.90 0.00 93 1013.8
20260502063638 14 72 1.6 8.0 0.00 4.90 0.00 93 1013.9
20260502063131 14 85 1.6 6.4 0.00 4.93 0.00 93 1013.8
20260502062626 14 85 1.6 6.4 0.00 4.93 0.00 93 1013.7
20260502062122 14 86 1.6 11.3 0.00 4.98 0.00 93 1013.7
20260502061837 14 86 1.6 11.3 0.00 4.98 0.00 93 1013.6
20260502061109 14 48 3.2 9.7 0.00 5.05 0.00 93 1013.6
20260502060602 14 48 3.2 17.7 0.00 5.08 0.00 93 1013.5
20260502060320 14 105 1.6 17.7 0.00 5.08 0.00 93 1013.5
20260502055558 14 63 1.6 6.4 0.00 5.13 0.00 93 1013.5
20260502055058 14 63 3.2 6.4 0.00 5.18 0.00 94 1013.3
20260502054556 14 80 1.6 11.3 0.00 5.28 0.00 94 1013.4
20260502054045 14 82 1.6 11.3 0.00 5.33 0.00 94 1013.5
20260502053545 14 29 1.6 9.7 0.00 5.33 0.00 94 1013.6
20260502053046 14 28 1.6 9.7 0.00 5.36 0.00 94 1013.6
20260502052544 14 65 1.6 6.4 0.00 5.36 0.00 94 1013.6
20260502052044 14 67 1.6 11.3 0.00 5.41 0.00 94 1013.7
20260502051544 14 67 1.6 11.3 0.00 5.69 0.00 94 1013.7
20260502051044 14 15 1.6 8.0 0.00 5.69 0.00 94 1013.9
20260502050541 14 286 3.2 6.4 0.00 5.69 0.00 94 1013.8
20260502050526 14 284 3.2 9.7 0.00 5.69 0.00 94 1013.6
20260502045540 14 295 3.2 9.7 0.00 5.69 5.69 94 1013.6
20260502045518 14 103 3.2 9.7 0.00 5.69 5.69 94 1013.4
20260502044540 14 103 3.2 14.5 0.00 5.69 5.69 94 1013.6
20260502044033 13 188 1.6 14.5 0.00 5.69 5.69 94 1013.7
20260502043801 13 31 1.6 9.7 0.00 5.69 5.69 94 1013.6
20260502043030 14 21 3.2 12.9 0.00 5.69 5.69 94 1013.6
20260502042526 13 43 3.2 12.9 0.03 5.69 5.69 94 1013.5
20260502042024 14 337 3.2 11.3 0.03 5.69 5.69 94 1013.6
20260502041524 14 329 3.2 11.3 0.05 5.69 5.69 94 1013.6
20260502041018 14 12 3.2 11.3 0.05 5.69 5.69 94 1013.6
20260502040512 14 17 4.8 9.7 0.05 5.69 5.69 94 1013.5
20260502040005 14 26 3.2 9.7 0.05 5.69 5.69 94 1013.6
20260502035459 14 336 3.2 8.0 0.05 5.69 5.69 95 1013.4
20260502034954 14 39 3.2 8.0 0.05 5.69 5.69 94 1013.4
20260502034447 14 37 3.2 9.7 0.05 5.69 5.69 95 1013.4
20260502033941 14 5 3.2 9.7 0.05 5.69 5.69 95 1013.0
20260502033436 14 355 1.6 6.4 0.08 5.69 5.69 95 1013.0
20260502032930 14 351 3.2 16.1 0.05 5.69 5.69 95 1012.8
20260502032906 14 331 3.2 16.1 0.05 5.71 5.66 95 1012.6
20260502031918 15 348 1.6 9.7 0.05 5.79 5.66 95 1012.3
20260502031634 15 321 3.2 9.7 0.03 5.77 5.64 95 1012.8
20260502030906 15 321 3.2 9.7 0.05 5.82 5.64 95 1012.3
20260502030623 15 355 3.2 11.3 0.05 5.87 5.64 95 1012.0
20260502025852 15 5 3.2 11.3 0.05 5.92 5.64 95 1011.9
20260502025352 15 47 1.6 8.0 0.05 5.92 5.64 95 1011.8
20260502025112 15 50 0.0 8.0 0.08 5.92 5.64 95 1011.6
20260502024344 15 50 1.6 8.0 0.10 5.92 5.64 95 1011.5
20260502023836 15 51 1.6 6.4 0.13 5.92 5.64 95 1011.3
20260502023334 15 51 1.6 4.8 0.10 5.89 5.61 95 1011.5
20260502022826 15 51 1.6 9.7 0.10 5.89 5.61 95 1011.5
20260502022310 15 51 1.6 9.7 0.10 5.89 5.61 95 1011.7
20260502021804 15 5 1.6 6.4 0.10 5.89 5.61 95 1011.6
20260502021258 15 5 1.6 6.4 0.13 5.89 5.61 95 1011.7
20260502020736 15 5 1.6 4.8 0.13 5.87 5.59 95 1011.7
20260502020236 15 5 1.6 6.4 0.15 5.87 5.59 95 1011.8
20260502015718 15 5 3.2 8.0 0.15 5.87 5.59 95 1011.8
20260502015216 15 30 3.2 8.0 0.15 5.87 5.59 95 1011.7
20260502014714 15 31 1.6 8.0 0.13 5.84 5.56 95 1011.5
20260502014212 15 32 1.6 8.0 0.10 5.82 5.54 95 1011.3
20260502013714 15 32 1.6 6.4 0.08 5.82 5.51 95 1011.5
20260502013207 15 36 1.6 6.4 0.10 5.82 5.51 95 1011.2
20260502012704 15 36 1.6 6.4 0.10 5.87 5.51 95 1010.9
20260502012156 15 36 1.6 6.4 0.15 5.97 5.51 95 1010.7
20260502011650 15 42 1.6 6.4 0.20 6.17 5.51 95 1010.6
20260502011145 15 43 3.2 8.0 0.25 6.58 5.49 95 1010.5
20260502010646 15 44 3.2 8.0 0.30 6.60 5.46 95 1010.5
20260502010147 15 0 3.2 11.3 0.36 6.60 5.44 95 1010.4
20260502005905 15 344 3.2 11.3 0.43 6.60 5.44 95 1010.3
20260502005144 15 23 3.2 9.7 0.46 6.60 5.44 95 1010.2
20260502004906 15 26 1.6 8.0 0.48 6.60 5.44 95 1009.7
20260502004140 15 24 1.6 9.7 0.48 6.60 5.44 95 1009.2
20260502003636 15 24 3.2 9.7 0.51 6.60 5.44 95 1009.2
20260502003357 15 60 3.2 9.7 0.56 6.58 5.41 95 1009.2
20260502002849 15 81 1.6 11.3 0.64 6.58 5.41 95 1011.7
20260502002338 15 81 3.2 11.3 0.58 6.53 5.36 95 1011.8
20260502001839 16 63 3.2 11.3 0.53 6.48 5.31 95 1009.3
20260502001112 16 52 3.2 11.3 0.46 6.40 5.26 95 1009.7
20260502000610 16 5 3.2 9.7 0.43 6.32 5.16 95 1009.5
20260502000105 16 351 1.6 9.7 0.33 6.22 5.08 95 1009.6
20260501235605 16 80 1.6 6.4 0.28 6.17 5.00 95 1009.5
20260501235100 16 80 3.2 11.3 0.25 6.15 4.98 95 1008.9
20260501234555 16 80 3.2 11.3 0.23 6.12 4.95 95 1008.7
20260501234056 16 82 3.2 16.1 0.20 6.10 4.95 95 1008.9
20260501233556 16 84 3.2 16.1 0.18 6.07 4.93 95 1008.1
20260501233051 16 86 3.2 16.1 0.13 6.02 4.85 95 1008.1
20260501232550 16 74 4.8 16.1 0.05 5.94 4.78 95 1008.7
20260501232052 16 295 4.8 11.3 0.05 5.94 4.78 95 1008.4
20260501231552 16 68 4.8 8.0 0.05 5.94 4.78 95 1008.2
20260501231052 16 0.0 0.0 0.05 5.94 4.78 95 1007.8
20260501230553 -17 0.0 0.0 0.00 5.89 4.72 1010.6
20260501230052 16 0.0 0.0 0.00 5.89 4.72 95 1010.9
20260501225552 16 78 0.0 0.0 0.00 5.89 4.72 95 1010.4
20260501225050 16 78 0.0 4.8 0.00 5.89 4.72 95 1008.0
20260501224530 16 78 0.0 6.4 0.00 5.89 4.72 95 1008.5
20260501224015 16 78 1.6 8.0 0.00 5.89 4.72 95 1008.5
20260501223947 16 78 1.6 12.9 0.00 5.89 4.72 95 1008.5
20260501223004 17 72 3.2 12.9 0.00 5.89 4.72 95 1008.2
20260501222457 17 84 1.6 9.7 0.03 5.89 4.72 95 1008.3
20260501221952 17 84 1.6 9.7 0.03 5.89 4.72 95 1008.3
20260501221446 17 296 1.6 11.3 0.10 5.89 4.72 95 1008.3
20260501220940 17 286 1.6 12.9 0.25 5.89 4.72 95 1008.4
20260501220434 17 59 1.6 12.9 0.36 5.89 4.72 96 1008.6
20260501215928 17 64 1.6 8.0 0.46 5.89 4.72 96 1008.4
20260501215422 17 38 1.6 9.7 0.84 5.89 4.72 96 1008.4
20260501214916 17 33 1.6 9.7 0.97 5.89 4.72 96 1008.7
20260501214408 17 34 1.6 8.0 0.99 5.89 4.72 95 1009.0
20260501213902 17 36 1.6 8.0 1.04 5.89 4.72 95 1008.8
20260501213356 17 72 1.6 6.4 1.04 5.89 4.72 95 1008.7
20260501212852 17 77 1.6 6.4 1.07 5.89 4.72 96 1008.5
20260501212352 17 77 1.6 4.8 1.04 5.87 4.70 96 1008.2
20260501211852 17 77 1.6 9.7 1.04 5.84 4.70 96 1007.9
20260501211332 17 77 1.6 9.7 0.99 5.77 4.60 96 1007.7
20260501210826 17 73 1.6 8.0 0.84 5.61 4.47 96 1007.7
20260501210311 17 91 3.2 17.7 0.76 5.54 4.37 96 1008.2
20260501205812 17 94 3.2 17.7 0.66 5.41 4.24 95 1007.7
20260501205306 17 67 1.6 8.0 0.20 4.95 3.84 95 1006.7
20260501204800 17 65 1.6 6.4 0.18 4.93 3.76 95 1008.5
20260501204254 17 66 3.2 11.3 0.15 4.88 3.71 95 1007.9
20260501203756 17 63 3.2 11.3 0.18 4.85 3.68 95 1007.4
20260501203740 17 53 3.2 8.0 0.25 4.83 3.68 96 1007.2
20260501202755 17 55 3.2 8.0 0.53 4.83 3.66 96 1006.9
20260501202254 17 78 1.6 6.4 0.51 4.80 3.63 96 1006.7
20260501202240 17 78 0.0 4.8 0.66 4.80 3.63 96 1007.4
20260501201256 17 78 1.6 8.0 0.71 4.78 3.61 96 1007.5
20260501200756 17 78 1.6 9.7 0.74 4.78 3.61 96 1006.9
20260501200520 17 78 3.2 9.7 0.76 4.78 3.61 96 1006.5
20260501195754 17 76 3.2 8.0 0.76 4.75 3.58 96 1006.5
20260501195257 17 75 1.6 8.0 0.79 4.75 3.58 96 1007.2
20260501194752 17 74 0.0 6.4 0.81 4.75 3.58 95 1007.4
20260501194253 17 74 0.0 3.2 0.79 4.72 3.56 95 1007.9
20260501193749 17 74 0.0 0.0 0.74 4.67 3.51 95 1009.8
20260501193248 17 73 0.0 0.0 0.64 4.57 3.40 95 1007.7
20260501192935 18 73 0.0 3.2 0.38 4.29 3.12 95 1009.4
20260501192210 18 73 0.0 6.4 0.30 4.17 3.12 95 1008.7
20260501191701 17 96 1.6 8.0 0.25 4.11 2.97 95 1006.4
20260501191415 18 98 4.8 14.5 0.20 4.06 2.90 95 1006.5
20260501190905 17 166 4.8 14.5 0.20 4.04 2.87 95 1006.5
20260501190142 17 112 4.8 11.3 0.23 4.01 2.84 95 1006.5
20260501185635 17 178 3.2 11.3 0.23 3.99 2.82 95 1006.6
20260501185130 17 159 3.2 12.9 0.23 3.96 2.79 95 1006.7
20260501184624 18 317 4.8 12.9 0.20 3.94 2.77 95 1008.1
20260501184118 18 319 3.2 12.9 0.20 3.94 2.77 95 1008.6
20260501183612 18 107 3.2 9.7 0.20 3.94 2.77 95 1007.8
20260501183106 18 108 4.8 9.7 0.23 3.94 2.77 95 1007.2
20260501182600 17 128 3.2 9.7 0.20 3.91 2.74 95 1007.0
20260501182057 17 77 1.6 4.8 0.18 3.86 2.69 95 1010.1
20260501181554 17 77 1.6 4.8 0.30 3.86 2.69 95 1010.5
20260501181051 17 77 1.6 4.8 0.36 3.86 2.69 95 1008.3
20260501180552 17 77 1.6 8.0 0.33 3.84 2.67 95 1008.2
20260501180052 17 78 1.6 8.0 0.28 3.78 2.62 95 1008.3
20260501175548 17 78 1.6 6.4 0.25 3.76 2.59 95 1008.3
20260501175043 17 78 1.6 8.0 0.25 3.73 2.57 95 1008.2
20260501174544 17 79 1.6 12.9 0.28 3.73 2.57 95 1008.3
20260501174038 17 98 1.6 12.9 0.43 3.73 2.57 95 1008.1
20260501173804 17 62 1.6 8.0 0.56 3.73 2.57 95 1007.8
20260501173031 17 61 3.2 8.0 1.19 3.71 2.54 95 1007.9
20260501172526 17 47 1.6 6.4 1.47 3.71 2.54 95 1007.8
20260501172020 17 51 3.2 8.0 1.50 3.66 2.51 95 1008.0
20260501171517 17 46 3.2 8.0 1.40 3.56 2.41 95 1008.3
20260501171017 17 317 3.2 9.7 1.35 3.51 2.34 95 1008.7
20260501170514 18 311 3.2 11.3 1.35 3.51 2.34 95 1008.5
20260501170012 18 66 1.6 11.3 1.35 3.51 2.34 95 1008.5
20260501165512 18 50 1.6 8.0 1.35 3.51 2.34 95 1008.5
20260501164956 18 56 1.6 8.0 1.32 3.48 2.31 95 1008.4
20260501164457 18 40 1.6 6.4 1.27 3.43 2.29 95 1008.3
20260501163959 17 40 1.6 14.5 1.12 3.28 2.13 94 1009.2
20260501163458 18 42 1.6 14.5 1.02 3.17 2.01 94 1010.0